Home   Weather   USA   Palo Alto   Past weeks
Flag for USA

Past Weather in Palo Alto, California, USA — Yesterday and Last 2 Weeks

Currently: 66 °F. Overcast. (Weather station: Moffett Field, USA). See more current weather

Past Weather in Palo Alto — Graph

°F

Palo Alto Temperature Yesterday

Maximum temperature yesterday: 79 °F (at 4:50 pm)
Minimum temperature yesterday: 61 °F (at 3:10 am)
Average temperature yesterday: 68 °F

High & Low Weather Summary for the Past Weeks

 TemperatureHumidityPressure
High79 °F (Jun 13, 4:50 pm)94% (Jun 1, 4:35 am)30.27 "Hg (Jun 1, 4:35 am)
Low50 °F (Jun 9, 4:15 am)30% (Jun 8, 3:15 pm)29.81 "Hg (Jun 6, 2:50 am)
Average63 °F66%29.97 "Hg
* Reported May 30 5:35 am — Jun 14 5:10 am, Palo Alto. Weather by CustomWeather, © 2021

Note: Actual official high and low records may vary slightly from our data, if they occured in-between our weather recording intervals... More about our weather records

Palo Alto Weather History for the Previous 24 Hours

Scroll right to see more
 ConditionsComfort  
Time TempWeatherWind HumidityBarometerVisibility
5:10 am
Mon, Jun 14
66 °FOvercast.No wind78%30.00 "Hg10 mi
4:50 am66 °FOvercast.No wind78%30.01 "Hg10 mi
4:10 am66 °FOvercast.3 mph78%30.00 "Hg10 mi
3:50 am66 °FOvercast.No wind78%30.00 "Hg10 mi
3:30 am66 °FOvercast.No wind78%30.00 "Hg10 mi
3:10 am64 °FOvercast.No wind83%30.00 "Hg10 mi
2:50 am64 °FOvercast.No wind83%30.00 "Hg10 mi
2:30 am64 °FOvercast.3 mph83%30.00 "Hg10 mi
2:10 am64 °FOvercast.No wind83%30.00 "Hg10 mi
1:50 am64 °FOvercast.No wind83%30.00 "Hg10 mi
1:30 am64 °FOvercast.No wind83%30.00 "Hg10 mi
1:10 am64 °FPassing clouds.3 mph83%30.00 "Hg10 mi
12:50 am64 °FClear.No wind83%30.00 "Hg10 mi
12:30 am64 °FClear.3 mph83%30.00 "Hg10 mi
12:10 am63 °FPassing clouds.3 mph88%30.01 "Hg10 mi
11:50 pm
Sun, Jun 13
63 °FClear.6 mph88%30.01 "Hg10 mi
11:30 pm63 °FClear.6 mph88%30.01 "Hg10 mi
11:10 pm64 °FClear.8 mph83%30.02 "Hg10 mi
10:50 pm64 °FClear.9 mph83%30.01 "Hg10 mi
10:30 pm64 °FClear.13 mph88%30.01 "Hg10 mi
10:10 pm64 °FClear.8 mph83%30.01 "Hg10 mi
9:50 pm66 °FClear.12 mph78%30.00 "Hg10 mi
9:30 pm68 °FClear.8 mph69%29.99 "Hg10 mi
8:30 pm70 °FClear.8 mph64%29.98 "Hg10 mi
8:10 pm72 °FSunny.8 mph57%29.98 "Hg10 mi
7:50 pm72 °FSunny.10 mph57%29.97 "Hg10 mi
7:30 pm72 °FSunny.12 mph57%29.96 "Hg10 mi
7:10 pm73 °FSunny.7 mph50%29.96 "Hg10 mi
6:50 pm73 °FSunny.10 mph50%29.95 "Hg10 mi
6:30 pm73 °FSunny.10 mph53%29.95 "Hg10 mi
6:10 pm75 °FSunny.12 mph47%29.94 "Hg10 mi
5:30 pm77 °FSunny.10 mph44%29.94 "Hg10 mi
5:10 pm77 °FSunny.12 mph44%29.94 "Hg10 mi
4:50 pm79 °FSunny.13 mph42%29.93 "Hg10 mi
4:30 pm77 °FSunny.12 mph47%29.94 "Hg10 mi
3:50 pm75 °FSunny.21 mph61%29.94 "Hg10 mi
3:30 pm75 °FSunny.22 mph57%29.94 "Hg10 mi
3:10 pm73 °FSunny.20 mph61%29.94 "Hg10 mi
2:50 pm75 °FSunny.17 mph54%29.94 "Hg10 mi
2:30 pm73 °FSunny.18 mph61%29.94 "Hg10 mi
1:50 pm75 °FSunny.15 mph50%29.95 "Hg10 mi
1:30 pm75 °FSunny.14 mph54%29.95 "Hg10 mi
1:10 pm73 °FSunny.16 mph57%29.96 "Hg10 mi
12:30 pm73 °FSunny.12 mph61%29.96 "Hg10 mi
12:10 pm72 °FSunny.13 mph65%29.96 "Hg10 mi
11:50 am72 °FSunny.12 mph65%29.96 "Hg10 mi
11:30 am72 °FSunny.10 mph65%29.96 "Hg10 mi
11:10 am72 °FSunny.9 mph65%29.97 "Hg10 mi
10:50 am70 °FSunny.9 mph69%29.97 "Hg10 mi
10:30 am70 °FPassing clouds.13 mph69%29.97 "Hg10 mi
10:10 am70 °FPassing clouds.10 mph73%29.96 "Hg10 mi
9:50 am70 °FSunny.10 mph69%29.96 "Hg10 mi
9:30 am68 °FSunny.7 mph73%29.96 "Hg10 mi
9:10 am68 °FPassing clouds.7 mph73%29.96 "Hg10 mi
8:50 am68 °FSunny.3 mph73%29.96 "Hg10 mi
8:30 am66 °FSunny.3 mph78%29.96 "Hg10 mi
8:10 am66 °FPassing clouds.No wind78%29.95 "Hg10 mi
7:50 am64 °FPartly sunny.No wind83%29.95 "Hg10 mi
7:30 am64 °FMore clouds than sun.No wind83%29.95 "Hg10 mi
7:10 am63 °FOvercast.No wind88%29.95 "Hg10 mi
6:50 am63 °FOvercast.No wind88%29.94 "Hg10 mi
6:30 am63 °FOvercast.No wind88%29.94 "Hg10 mi
Weather by CustomWeather, © 2021

See weather overview